Simultaneous Nadir Overpasses (SNOs) Predictions

Prediction of SNOs between AQUA and METOP-A Satellite Orbit:

Table of predicted SNOs for the next 14.0 days since TLE Epoch: 1/16/2015
Index Date (AQUA) Time (AQUA) Lat,Lon (AQUA) SZA (AQUA ) Date (METOP-A) Time (METOP-A) Lat,Lon (METOP-A) SZA (METOP-A ) Distance(km) Time Diff (sec)
1 01/16/2015 11:48:57 73.75, -2.80 94.74 01/16/2015 11:48:10 73.77, -2.87 94.77 3.19 47
2 01/16/2015 12:38:24 -73.82, 164.67 85.19 01/16/2015 12:38:50 -73.84, 164.63 85.17 2.32 26
3 01/19/2015 07:23:16 73.76, 63.60 94.21 01/19/2015 07:22:35 73.80, 63.59 94.25 3.85 41
4 01/19/2015 08:12:43 -73.83,-128.92 85.73 01/19/2015 08:13:16 -73.82,-129.02 85.74 3.38 33
5 01/22/2015 02:57:34 73.76, 130.03 93.60 01/22/2015 02:57:01 73.77, 129.92 93.62 3.59 33
6 01/22/2015 03:47:01 -73.83, -62.48 86.34 01/22/2015 03:47:41 -73.85, -62.57 86.32 3.39 40
7 01/24/2015 22:31:51 73.79,-163.61 92.98 01/24/2015 22:31:25 73.79,-163.64 92.98 1.27 26
8 01/24/2015 23:21:18 -73.86, 3.89 86.96 01/24/2015 23:22:05 -73.86, 3.87 86.96 1.09 47
9 01/27/2015 17:16:30 -73.25, 96.35 88.30 01/27/2015 17:15:22 -73.20, 94.07 88.24 73.14 68
10 01/27/2015 18:06:08 73.81, -97.20 92.30 01/27/2015 18:05:50 73.80, -97.22 92.29 1.11 18
11 01/27/2015 18:55:35 -73.87, 70.30 87.65 01/27/2015 18:56:30 -73.88, 70.30 87.65 1.10 55




NCC Satellite Simultaneous Nadir Overpasses (SNOs) Prediction Service
